Location: Kawakawa
(35.3830°S, 174.0670°E)
Time: 18:38:17
(UTC+12:00)

Okean-O - Pass Details

Date: 15 August 2020
Orbit: 639 x 640 km, 98.2° (Epoch: 25 September)

Event Time Altitude Azimuth Distance (km) Brightness Sun altitude
Exits shadow 19:39:15 24° 165° (SSE) 1,332 4.1 -22.4°
Maximum altitude 19:41:55 86° 78° (ENE) 655 2.5 -22.9°
Drops below altitude 10° 19:46:22 10° 348° (NNW) 2,034 5.3 -23.8°
Sets 19:48:33 0° 347° (NNW) 2,935 6.2 -24.2°
